logo tempoitalia

Diretta Meteo Melo, Uruguaylunedì 31 agosto ore 02:00

Mappa
Sereno 14 °C Sereno 24 Ore: T.min 11 T.max 18
Ponente Est/Sud-Est Km/h 18.5 Punto di rugiada: 13 °C Umidità: 93% Visibilità: 0 Km
Il sole sorge alle: 06:54 Il sole tramonta alle: 18:19
31 Agosto 2026 02:00 tempo osservato: Sereno Sereno 14 93 1015 vento: Nord E/SE 18.5
31 Agosto 2026 01:00 tempo osservato: Sereno Sereno 14 93 1016 vento: Nord E/SE 20.3
31 Agosto 2026 00:00 tempo osservato: Sereno Sereno 14 93 1016 vento: Nord E 11.1
30 Agosto 2026 23:00 tempo osservato: Sereno Sereno 14 93 1016 vento: Nord E/SE 14.8
30 Agosto 2026 22:00 tempo osservato: Sereno Sereno 15 93 1017 vento: Nord E 18.5
30 Agosto 2026 21:00 tempo osservato: Sereno Sereno 15 87 1016 vento: Nord E 18.5
30 Agosto 2026 20:00 tempo osservato: Sereno Sereno 15 93 1016 vento: Nord E/SE 22.2
30 Agosto 2026 19:00 tempo osservato: Sereno Sereno 16 87 1016 vento: Nord E/SE 18.5
30 Agosto 2026 18:00 tempo osservato: Sereno Sereno 16 87 1015 vento: Nord SE 18.5
30 Agosto 2026 17:00 tempo osservato: Sereno Sereno 18 77 1016 vento: Nord E 22.2
30 Agosto 2026 16:00 tempo osservato: Sereno Sereno 18 77 1016 vento: Nord E 24
30 Agosto 2026 15:00 tempo osservato: Sereno Sereno 18 77 1016 vento: Nord E 29.6
30 Agosto 2026 14:00 tempo osservato: Sereno Sereno 17 82 1016 vento: Nord E/SE 24
30 Agosto 2026 13:00 tempo osservato: Sereno Sereno 17 82 1017 vento: Nord E/SE 22.2
30 Agosto 2026 12:00 tempo osservato: Sereno Sereno 16 82 1018 vento: Nord E/SE 25.9
30 Agosto 2026 11:00 tempo osservato: Sereno Sereno 16 87 1018 vento: Nord E/SE 20.3
30 Agosto 2026 10:00 tempo osservato: Sereno Sereno 13 100 1018 vento: Nord SE 11.1
30 Agosto 2026 09:00 tempo osservato: Sereno Sereno 12 100 1018 vento: Nord SE 16.7
30 Agosto 2026 08:00 tempo osservato: Sereno Sereno 11 100 1018 vento: Nord SE 11.1
30 Agosto 2026 07:00 tempo osservato: Sereno Sereno 11 100 1018 vento: Nord S/SE 9.3
30 Agosto 2026 06:00 tempo osservato: Sereno Sereno 11 100 1018 vento: Nord SE 9.3
30 Agosto 2026 05:00 tempo osservato: Sereno Sereno 11 100 1016 vento: Nord SE 13
30 Agosto 2026 04:00 tempo osservato: Sereno Sereno 11 100 1016 vento: Nord SE 14.8
30 Agosto 2026 03:00 tempo osservato: Sereno Sereno 11 100 1016 vento: Nord SE 11.1